Location: Puketoi
(40.5833°S, 176.0167°E)
Time: 01:40:53
(UTC+00:00)

SL-4 R/B - Pass Details

Date: 08 February 2023
Orbit: 423 x 637 km, 51.6° (Epoch: 31 March)

Event Time Altitude Azimuth Distance (km) Brightness Sun altitude
Exits shadow 13:34:22 26° 126° (SE) 1,284 4.3 -32.5°
Drops below altitude 10° 13:36:27 10° 126° (SE) 2,057 5.5 -32.4°
Sets 13:38:47 0° 126° (SE) 2,959 6.5 -32.2°
